HDA825 ZUUU-VHHH

Flight info

Callsign HDA825
Flight time 2h 0m
Altitude 35100
Route IDBOR B330 KWE W181 DUDIT A599 POU R473 SIERA
Aircraft A320/M-SDE3FGHIRWY/LB1

Departure

Time 2026-05-04 11:57
Airport Chengdu Shuangliu International Airport (ZUUU)

Arrival

Time 2026-05-04 13:57
Airport Hong Kong International Airport (VHHH)
Time Latitude Longitude Altitude Speed Heading
2026-05-04 11:36 30.57273 103.95085 1637 ft 0 kts 22°
2026-05-04 11:45 30.57269 103.95084 1637 ft 2 kts 22°
2026-05-04 11:46 30.57255 103.95077 1637 ft 2 kts 21°
2026-05-04 11:46 30.57245 103.95072 1637 ft 2 kts 21°
2026-05-04 11:46 30.57229 103.95069 1637 ft 2 kts 359°
2026-05-04 11:46 30.57214 103.95071 1637 ft 2 kts 342°
2026-05-04 11:47 30.57199 103.95079 1637 ft 2 kts 326°
2026-05-04 11:47 30.57188 103.95091 1637 ft 1 kts 310°
2026-05-04 11:47 30.57184 103.95096 1637 ft 1 kts 303°
2026-05-04 11:47 30.57183 103.95098 1637 ft 0 kts 305°
2026-05-04 11:49 30.57186 103.95093 1637 ft 6 kts 305°
2026-05-04 11:50 30.57214 103.95020 1637 ft 10 kts 290°
2026-05-04 11:50 30.57242 103.94942 1637 ft 12 kts 292°
2026-05-04 11:50 30.57283 103.94827 1637 ft 17 kts 292°
2026-05-04 11:50 30.57326 103.94702 1637 ft 14 kts 310°
2026-05-04 11:51 30.57419 103.94713 1637 ft 15 kts 22°
2026-05-04 11:51 30.57560 103.94779 1637 ft 29 kts 22°
2026-05-04 11:51 30.57767 103.94875 1637 ft 31 kts 22°
2026-05-04 11:51 30.57960 103.94965 1637 ft 28 kts 22°
2026-05-04 11:52 30.58132 103.95045 1637 ft 25 kts 22°
2026-05-04 11:52 30.58288 103.95117 1637 ft 22 kts 21°
2026-05-04 11:52 30.58427 103.95182 1637 ft 20 kts 22°
2026-05-04 11:52 30.58569 103.95247 1637 ft 22 kts 21°
2026-05-04 11:53 30.58718 103.95318 1637 ft 23 kts 22°
2026-05-04 11:53 30.58867 103.95386 1637 ft 22 kts 22°
2026-05-04 11:53 30.59013 103.95454 1637 ft 22 kts 21°
2026-05-04 11:53 30.59156 103.95521 1637 ft 21 kts 21°
2026-05-04 11:55 30.59286 103.95577 1638 ft 0 kts 294°
2026-05-04 11:55 30.59290 103.95567 1638 ft 9 kts 294°
2026-05-04 11:56 30.59327 103.95422 1638 ft 21 kts 257°
2026-05-04 11:56 30.59201 103.95330 1637 ft 35 kts 201°
2026-05-04 11:56 30.58774 103.95132 1638 ft 96 kts 202°
2026-05-04 11:56 30.57976 103.94765 1638 ft 148 kts 202°
2026-05-04 11:57 30.56911 103.94262 1837 ft 173 kts 204°
2026-05-04 11:57 30.55858 103.93685 2435 ft 167 kts 201°
2026-05-04 11:57 30.54775 103.93203 2903 ft 169 kts 199°
2026-05-04 11:57 30.53645 103.92691 3339 ft 179 kts 201°
2026-05-04 11:58 30.52447 103.92091 3537 ft 195 kts 201°
2026-05-04 11:58 30.51153 103.91448 3711 ft 216 kts 203°
2026-05-04 11:58 30.49673 103.90737 3941 ft 235 kts 199°
2026-05-04 11:58 30.48091 103.90058 4288 ft 251 kts 199°
2026-05-04 11:59 30.46399 103.89323 4696 ft 265 kts 200°
2026-05-04 11:59 30.44674 103.88554 5362 ft 269 kts 200°
2026-05-04 11:59 30.42931 103.87760 6080 ft 271 kts 200°
2026-05-04 11:59 30.41172 103.86955 6804 ft 274 kts 201°
2026-05-04 12:00 30.39411 103.86144 7535 ft 276 kts 201°
2026-05-04 12:00 30.37616 103.85316 8244 ft 279 kts 201°
2026-05-04 12:00 30.35801 103.84477 8955 ft 283 kts 202°
2026-05-04 12:00 30.33966 103.83627 9613 ft 287 kts 202°
2026-05-04 12:01 30.32120 103.82773 10260 ft 290 kts 202°
2026-05-04 12:01 30.30210 103.81888 10653 ft 304 kts 202°
2026-05-04 12:02 30.16662 103.81887 12911 ft 373 kts 153°
2026-05-04 12:03 30.14366 103.83260 13421 ft 378 kts 153°
2026-05-04 12:03 30.11985 103.84664 13921 ft 383 kts 153°
2026-05-04 12:03 30.09622 103.86041 14388 ft 388 kts 153°
2026-05-04 12:03 30.07173 103.87462 14864 ft 393 kts 154°
2026-05-04 12:04 30.04728 103.88885 15340 ft 397 kts 154°
2026-05-04 12:04 30.02250 103.90333 15781 ft 403 kts 154°
2026-05-04 12:04 29.99729 103.91805 16229 ft 408 kts 154°
2026-05-04 12:04 29.97182 103.93291 16671 ft 412 kts 154°
2026-05-04 12:05 29.94607 103.94791 17109 ft 417 kts 154°
2026-05-04 12:05 29.92027 103.96293 17527 ft 421 kts 154°
2026-05-04 12:05 29.89375 103.97835 17961 ft 425 kts 154°
2026-05-04 12:05 29.86722 103.99380 18394 ft 429 kts 155°
2026-05-04 12:06 29.84078 104.00916 18824 ft 432 kts 155°
2026-05-04 12:06 29.81368 104.02490 19249 ft 435 kts 155°
2026-05-04 12:06 29.78734 104.04255 19641 ft 441 kts 144°
2026-05-04 12:06 29.76465 104.06619 20062 ft 444 kts 131°
2026-05-04 12:07 29.74651 104.09485 20477 ft 446 kts 121°
2026-05-04 12:07 29.73026 104.12525 20852 ft 449 kts 120°
2026-05-04 12:07 29.71417 104.15620 21212 ft 453 kts 120°
2026-05-04 12:07 29.69779 104.18748 21608 ft 456 kts 120°
2026-05-04 12:08 29.68135 104.21854 22006 ft 458 kts 120°
2026-05-04 12:08 29.66462 104.24983 22356 ft 461 kts 121°
2026-05-04 12:08 29.64778 104.28115 22679 ft 465 kts 121°
2026-05-04 12:08 29.63066 104.31290 23018 ft 468 kts 121°
2026-05-04 12:09 29.61368 104.34431 23346 ft 471 kts 121°
2026-05-04 12:09 29.59613 104.37674 23648 ft 474 kts 121°
2026-05-04 12:09 29.57871 104.40887 23946 ft 478 kts 121°
2026-05-04 12:09 29.56123 104.44109 24247 ft 481 kts 121°
2026-05-04 12:10 29.54349 104.47376 24531 ft 484 kts 121°
2026-05-04 12:10 29.52551 104.50687 24804 ft 488 kts 121°
2026-05-04 12:10 29.50764 104.53974 25072 ft 491 kts 121°
2026-05-04 12:10 29.48954 104.57302 25326 ft 495 kts 121°
2026-05-04 12:11 29.47131 104.60648 25576 ft 498 kts 122°
2026-05-04 12:11 29.45292 104.64023 25853 ft 502 kts 122°
2026-05-04 12:11 29.43445 104.67409 26110 ft 505 kts 122°
2026-05-04 12:11 29.41558 104.70864 26347 ft 508 kts 122°
2026-05-04 12:12 29.39704 104.74261 26583 ft 511 kts 122°
2026-05-04 12:12 29.37802 104.77741 26812 ft 514 kts 123°
2026-05-04 12:12 29.35901 104.81203 27051 ft 516 kts 123°
2026-05-04 12:12 29.33718 104.84420 27267 ft 516 kts 137°
2026-05-04 12:13 29.30945 104.87015 27503 ft 512 kts 152°
2026-05-04 12:14 29.08220 104.98462 29441 ft 511 kts 162°
2026-05-04 12:15 29.04987 105.00100 29735 ft 510 kts 162°
2026-05-04 12:15 29.01734 105.01746 30059 ft 509 kts 162°
2026-05-04 12:15 28.98492 105.03383 30360 ft 508 kts 162°
2026-05-04 12:15 28.95260 105.05011 30644 ft 508 kts 162°
2026-05-04 12:16 28.92037 105.06628 30930 ft 507 kts 162°
2026-05-04 12:16 28.88807 105.08243 31192 ft 507 kts 162°
2026-05-04 12:16 28.85573 105.09859 31460 ft 506 kts 162°
2026-05-04 12:16 28.82344 105.11472 31706 ft 506 kts 163°
2026-05-04 12:17 28.79134 105.13079 31955 ft 506 kts 162°
2026-05-04 12:17 28.75965 105.14829 32200 ft 509 kts 159°
2026-05-04 12:17 28.72828 105.16714 32468 ft 508 kts 158°
2026-05-04 12:17 28.69719 105.18607 32740 ft 507 kts 158°
2026-05-04 12:18 28.66629 105.20489 33027 ft 506 kts 158°
2026-05-04 12:18 28.63512 105.22384 33270 ft 506 kts 158°
2026-05-04 12:18 28.60397 105.24272 33496 ft 507 kts 158°
2026-05-04 12:18 28.57298 105.26147 33717 ft 507 kts 158°
2026-05-04 12:19 28.54179 105.28032 33934 ft 508 kts 158°
2026-05-04 12:19 28.51069 105.29908 34121 ft 509 kts 158°
2026-05-04 12:19 28.47947 105.31790 34280 ft 510 kts 158°
2026-05-04 12:19 28.44788 105.33694 34467 ft 511 kts 158°
2026-05-04 12:20 28.41648 105.35586 34664 ft 512 kts 158°
2026-05-04 12:20 28.38494 105.37483 34830 ft 513 kts 158°
2026-05-04 12:20 28.35347 105.39376 35007 ft 513 kts 158°
2026-05-04 12:20 28.32207 105.41264 35152 ft 514 kts 158°
2026-05-04 12:21 28.25857 105.45077 35170 ft 514 kts 158°
2026-05-04 12:21 28.19550 105.48859 35185 ft 515 kts 158°
2026-05-04 12:22 28.13223 105.52639 35195 ft 514 kts 159°
2026-05-04 12:22 28.06724 105.55858 35195 ft 506 kts 167°
2026-05-04 12:23 28.00038 105.58097 35196 ft 498 kts 175°
2026-05-04 12:23 27.93261 105.59435 35198 ft 491 kts 181°
2026-05-04 12:24 27.86490 105.60493 35184 ft 496 kts 177°
2026-05-04 12:24 27.79751 105.62471 35193 ft 504 kts 168°
2026-05-04 12:25 27.73192 105.65462 35201 ft 512 kts 161°
2026-05-04 12:25 27.66872 105.69195 35213 ft 511 kts 160°
2026-05-04 12:26 27.60466 105.72723 35224 ft 511 kts 161°
2026-05-04 12:26 27.54083 105.76176 35243 ft 510 kts 161°
2026-05-04 12:27 27.47685 105.79624 35258 ft 510 kts 161°
2026-05-04 12:27 27.41270 105.83083 35258 ft 510 kts 161°
2026-05-04 12:28 27.34907 105.86510 35257 ft 509 kts 161°
2026-05-04 12:28 27.28507 105.89950 35266 ft 510 kts 161°
2026-05-04 12:29 27.22089 105.93397 35276 ft 510 kts 161°
2026-05-04 12:29 27.15678 105.96835 35273 ft 510 kts 161°
2026-05-04 12:30 27.09392 106.00467 35263 ft 515 kts 154°
2026-05-04 12:30 27.03558 106.05247 35269 ft 523 kts 142°
2026-05-04 12:31 26.98534 106.11159 35273 ft 529 kts 131°
2026-05-04 12:31 26.94130 106.17725 35266 ft 530 kts 129°
2026-05-04 12:32 26.87544 106.27641 35266 ft 530 kts 129°
2026-05-04 12:33 26.83100 106.34236 35272 ft 529 kts 130°
2026-05-04 12:33 26.78664 106.40791 35273 ft 528 kts 130°
2026-05-04 12:34 26.74256 106.47292 35276 ft 527 kts 130°
2026-05-04 12:34 26.69837 106.53802 35271 ft 527 kts 130°
2026-05-04 12:35 26.65402 106.60325 35269 ft 526 kts 130°
2026-05-04 12:35 26.60974 106.66830 35256 ft 526 kts 130°
2026-05-04 12:36 26.56548 106.73322 35256 ft 526 kts 130°
2026-05-04 12:36 26.52011 106.79694 35254 ft 523 kts 135°
2026-05-04 12:37 26.46966 106.85483 35254 ft 521 kts 140°
2026-05-04 12:37 26.41805 106.91098 35258 ft 520 kts 140°
2026-05-04 12:38 26.36626 106.96755 35264 ft 520 kts 140°
2026-05-04 12:38 26.31482 107.02393 35276 ft 520 kts 139°
2026-05-04 12:39 26.26339 107.08035 35279 ft 519 kts 139°
2026-05-04 12:39 26.21212 107.13673 35272 ft 519 kts 139°
2026-05-04 12:40 26.16092 107.19292 35263 ft 518 kts 139°
2026-05-04 12:40 26.10959 107.24917 35256 ft 518 kts 140°
2026-05-04 12:41 26.05841 107.30520 35251 ft 518 kts 139°
2026-05-04 12:41 26.00701 107.36137 35242 ft 517 kts 139°
2026-05-04 12:42 25.95564 107.41741 35240 ft 517 kts 139°
2026-05-04 12:42 25.90447 107.47321 35238 ft 517 kts 139°
2026-05-04 12:43 25.85309 107.52915 35240 ft 517 kts 140°
2026-05-04 12:43 25.80173 107.58499 35240 ft 517 kts 140°
2026-05-04 12:44 25.75042 107.64071 35238 ft 516 kts 139°
2026-05-04 12:44 25.69928 107.69627 35232 ft 516 kts 140°
2026-05-04 12:45 25.64831 107.75212 35225 ft 516 kts 140°
2026-05-04 12:45 25.59748 107.80778 35218 ft 516 kts 140°
2026-05-04 12:46 25.54653 107.86345 35213 ft 515 kts 140°
2026-05-04 12:46 25.49354 107.91652 35204 ft 509 kts 149°
2026-05-04 12:47 25.43287 107.95445 35200 ft 495 kts 165°
2026-05-04 12:47 25.36792 107.97477 35200 ft 481 kts 179°
2026-05-04 12:48 25.30158 107.98312 35205 ft 478 kts 182°
2026-05-04 12:48 25.23561 107.99055 35207 ft 478 kts 182°
2026-05-04 12:49 25.16929 107.99839 35201 ft 478 kts 182°
2026-05-04 12:49 25.10316 108.00639 35191 ft 478 kts 181°
2026-05-04 12:50 25.03704 108.01444 35180 ft 478 kts 182°
2026-05-04 12:50 24.97048 108.02253 35174 ft 478 kts 181°
2026-05-04 12:51 24.90439 108.03056 35171 ft 478 kts 181°
2026-05-04 12:51 24.83822 108.03857 35171 ft 478 kts 181°
2026-05-04 12:52 24.77232 108.04657 35170 ft 477 kts 181°
2026-05-04 12:52 24.70628 108.05458 35170 ft 476 kts 181°
2026-05-04 12:53 24.64056 108.06250 35173 ft 477 kts 181°
2026-05-04 12:53 24.57430 108.07050 35175 ft 476 kts 181°
2026-05-04 12:54 24.50868 108.07846 35176 ft 476 kts 181°
2026-05-04 12:54 24.44252 108.08655 35176 ft 476 kts 181°
2026-05-04 12:55 24.37688 108.09454 35174 ft 476 kts 181°
2026-05-04 12:55 24.31096 108.10255 35171 ft 475 kts 181°
2026-05-04 12:56 24.24521 108.11053 35170 ft 474 kts 181°
2026-05-04 12:56 24.17991 108.11844 35169 ft 475 kts 181°
2026-05-04 12:57 24.11427 108.12637 35168 ft 475 kts 181°
2026-05-04 12:57 24.04806 108.13435 35168 ft 476 kts 181°
2026-05-04 12:58 23.98266 108.14224 35169 ft 475 kts 180°
2026-05-04 12:58 23.91703 108.15234 35150 ft 484 kts 170°
2026-05-04 12:58 23.88534 108.16670 35159 ft 496 kts 155°
2026-05-04 12:59 23.85726 108.18913 35161 ft 505 kts 140°
2026-05-04 12:59 23.83450 108.21867 35157 ft 513 kts 124°
2026-05-04 12:59 23.81878 108.25355 35154 ft 517 kts 109°
2026-05-04 12:59 23.81118 108.29186 35156 ft 518 kts 94°
2026-05-04 13:00 23.80897 108.33067 35167 ft 517 kts 91°
2026-05-04 13:00 23.80617 108.40893 35159 ft 517 kts 91°
2026-05-04 13:01 23.80252 108.48727 35161 ft 518 kts 92°
2026-05-04 13:01 23.79818 108.56551 35162 ft 518 kts 92°
2026-05-04 13:02 23.79364 108.64384 35165 ft 518 kts 92°
2026-05-04 13:02 23.78905 108.72207 35165 ft 518 kts 93°
2026-05-04 13:03 23.78440 108.80035 35169 ft 518 kts 93°
2026-05-04 13:03 23.77975 108.87830 35161 ft 519 kts 93°
2026-05-04 13:04 23.77505 108.95664 35154 ft 519 kts 93°
2026-05-04 13:04 23.77024 109.03530 35145 ft 519 kts 93°
2026-05-04 13:05 23.76533 109.11354 35144 ft 519 kts 94°
2026-05-04 13:05 23.75495 109.19136 35140 ft 520 kts 102°
2026-05-04 13:06 23.73940 109.26823 35142 ft 520 kts 103°
2026-05-04 13:06 23.72359 109.34500 35141 ft 519 kts 103°
2026-05-04 13:07 23.70806 109.42134 35146 ft 519 kts 103°
2026-05-04 13:07 23.69258 109.49769 35142 ft 519 kts 103°
2026-05-04 13:08 23.67697 109.57450 35147 ft 519 kts 103°
2026-05-04 13:08 23.66149 109.65041 35151 ft 519 kts 103°
2026-05-04 13:09 23.64564 109.72743 35155 ft 518 kts 103°
2026-05-04 13:09 23.62977 109.80418 35158 ft 519 kts 103°
2026-05-04 13:10 23.61390 109.88077 35160 ft 519 kts 104°
2026-05-04 13:10 23.59801 109.95725 35170 ft 519 kts 104°
2026-05-04 13:11 23.58217 110.03329 35176 ft 518 kts 104°
2026-05-04 13:11 23.56612 110.11017 35171 ft 518 kts 104°
2026-05-04 13:12 23.55016 110.18638 35170 ft 518 kts 104°
2026-05-04 13:12 23.53418 110.26244 35159 ft 518 kts 104°
2026-05-04 13:13 23.51805 110.33899 35158 ft 518 kts 104°
2026-05-04 13:13 23.50232 110.41503 35158 ft 518 kts 103°
2026-05-04 13:14 23.48688 110.49159 35154 ft 518 kts 103°
2026-05-04 13:14 23.47133 110.56809 35154 ft 518 kts 103°
2026-05-04 13:15 23.45576 110.64424 35155 ft 518 kts 103°
2026-05-04 13:15 23.44004 110.72089 35154 ft 518 kts 104°
2026-05-04 13:16 23.42407 110.79730 35157 ft 518 kts 104°
2026-05-04 13:16 23.40800 110.87320 35157 ft 518 kts 104°
2026-05-04 13:17 23.39181 110.94965 35159 ft 518 kts 104°
2026-05-04 13:17 23.37563 111.02586 35162 ft 518 kts 104°
2026-05-04 13:18 23.35955 111.10143 35160 ft 517 kts 104°
2026-05-04 13:18 23.34341 111.17776 35160 ft 518 kts 104°
2026-05-04 13:19 23.32795 111.25381 35159 ft 518 kts 103°
2026-05-04 13:19 23.31241 111.33019 35157 ft 518 kts 104°
2026-05-04 13:20 23.29680 111.40618 35156 ft 518 kts 104°
2026-05-04 13:20 23.28101 111.48277 35154 ft 518 kts 104°
2026-05-04 13:21 23.26529 111.55857 35153 ft 518 kts 104°
2026-05-04 13:21 23.24923 111.63459 35155 ft 518 kts 104°
2026-05-04 13:22 23.23303 111.71087 35157 ft 517 kts 104°
2026-05-04 13:22 23.21684 111.78694 35163 ft 517 kts 104°
2026-05-04 13:23 23.20078 111.86288 35170 ft 517 kts 104°
2026-05-04 13:23 23.18503 111.93900 35179 ft 518 kts 104°
2026-05-04 13:24 23.16922 112.01524 35188 ft 519 kts 104°
2026-05-04 13:24 23.15334 112.09128 35186 ft 519 kts 104°
2026-05-04 13:25 23.12937 112.20564 35175 ft 518 kts 104°
2026-05-04 13:25 23.11343 112.28140 35170 ft 518 kts 104°
2026-05-04 13:26 23.09734 112.35769 34876 ft 517 kts 104°
2026-05-04 13:26 23.08942 112.39519 34609 ft 515 kts 104°
2026-05-04 13:26 23.08146 112.43285 34338 ft 512 kts 105°
2026-05-04 13:27 23.07430 112.47058 34067 ft 510 kts 102°
2026-05-04 13:27 23.06901 112.50843 33800 ft 510 kts 98°
2026-05-04 13:27 23.06559 112.54703 33530 ft 512 kts 95°
2026-05-04 13:27 23.06307 112.58511 33263 ft 512 kts 95°
2026-05-04 13:28 23.06064 112.62404 32994 ft 514 kts 95°
2026-05-04 13:28 23.05821 112.66253 32726 ft 514 kts 95°
2026-05-04 13:28 23.05568 112.70143 32474 ft 515 kts 96°
2026-05-04 13:28 23.05311 112.73985 32229 ft 515 kts 96°
2026-05-04 13:29 23.05049 112.77828 31979 ft 516 kts 96°
2026-05-04 13:29 23.04783 112.81732 31730 ft 515 kts 96°
2026-05-04 13:29 23.04518 112.85584 31485 ft 515 kts 96°
2026-05-04 13:29 23.04250 112.89458 31235 ft 516 kts 96°
2026-05-04 13:30 23.03983 112.93326 30990 ft 516 kts 96°
2026-05-04 13:30 23.03710 112.97230 30739 ft 516 kts 96°
2026-05-04 13:30 23.03440 113.01093 30494 ft 517 kts 96°
2026-05-04 13:30 23.03168 113.04949 30248 ft 517 kts 96°
2026-05-04 13:31 23.02893 113.08856 29998 ft 517 kts 96°
2026-05-04 13:31 23.02392 113.12681 29725 ft 512 kts 109°
2026-05-04 13:31 23.01011 113.16170 29475 ft 501 kts 127°
2026-05-04 13:31 22.98846 113.19033 29229 ft 488 kts 144°
2026-05-04 13:32 22.96085 113.21128 28976 ft 472 kts 160°
2026-05-04 13:32 22.93068 113.22381 28744 ft 463 kts 169°
2026-05-04 13:32 22.90003 113.23388 28497 ft 462 kts 170°
2026-05-04 13:32 22.86881 113.24401 28245 ft 463 kts 170°
2026-05-04 13:33 22.83808 113.25422 27999 ft 461 kts 169°
2026-05-04 13:33 22.80782 113.26447 27750 ft 460 kts 169°
2026-05-04 13:33 22.77735 113.27492 27508 ft 458 kts 168°
2026-05-04 13:33 22.74700 113.28540 27262 ft 456 kts 168°
2026-05-04 13:34 22.71670 113.29589 27016 ft 454 kts 168°
2026-05-04 13:34 22.68659 113.30631 26762 ft 453 kts 168°
2026-05-04 13:34 22.65662 113.31669 26521 ft 452 kts 168°
2026-05-04 13:34 22.62656 113.32709 26279 ft 451 kts 168°
2026-05-04 13:35 22.59682 113.33740 26032 ft 449 kts 168°
2026-05-04 13:35 22.53713 113.35803 25535 ft 447 kts 168°
2026-05-04 13:35 22.50775 113.36820 25295 ft 446 kts 168°
2026-05-04 13:36 22.47825 113.37837 25046 ft 445 kts 168°
2026-05-04 13:36 22.44866 113.38859 24805 ft 443 kts 168°
2026-05-04 13:36 22.41945 113.39865 24563 ft 441 kts 168°
2026-05-04 13:36 22.39022 113.40873 24312 ft 440 kts 167°
2026-05-04 13:37 22.36095 113.41882 24066 ft 439 kts 167°
2026-05-04 13:37 22.33180 113.42886 23814 ft 438 kts 167°
2026-05-04 13:37 22.30270 113.43886 23513 ft 436 kts 167°
2026-05-04 13:37 22.27396 113.44875 23157 ft 434 kts 167°
2026-05-04 13:38 22.24514 113.45866 22686 ft 432 kts 167°
2026-05-04 13:38 22.21667 113.46847 22182 ft 429 kts 167°
2026-05-04 13:38 22.18843 113.47866 21661 ft 427 kts 166°
2026-05-04 13:38 22.16038 113.48901 21128 ft 425 kts 166°
2026-05-04 13:39 22.13228 113.49940 20581 ft 424 kts 166°
2026-05-04 13:39 22.10432 113.50969 20172 ft 418 kts 165°
2026-05-04 13:39 22.07698 113.51974 20049 ft 414 kts 165°
2026-05-04 13:39 22.04989 113.52967 19800 ft 410 kts 165°
2026-05-04 13:40 22.02293 113.53952 19288 ft 407 kts 165°
2026-05-04 13:40 21.99649 113.54921 19054 ft 397 kts 165°
2026-05-04 13:40 21.97107 113.55981 19040 ft 385 kts 161°
2026-05-04 13:40 21.94643 113.57108 18787 ft 379 kts 161°
2026-05-04 13:41 21.92237 113.58218 18279 ft 379 kts 161°
2026-05-04 13:41 21.89791 113.59344 17808 ft 378 kts 160°
2026-05-04 13:41 21.87400 113.60445 17399 ft 376 kts 160°
2026-05-04 13:42 21.82625 113.62644 16582 ft 370 kts 160°
2026-05-04 13:42 21.80263 113.63730 16158 ft 368 kts 160°
2026-05-04 13:42 21.77886 113.64822 15739 ft 366 kts 160°
2026-05-04 13:42 21.75553 113.65894 15322 ft 364 kts 161°
2026-05-04 13:43 21.73237 113.66957 14922 ft 360 kts 161°
2026-05-04 13:43 21.70987 113.68084 14667 ft 348 kts 151°
2026-05-04 13:43 21.69299 113.69866 14298 ft 342 kts 122°
2026-05-04 13:43 21.68572 113.72276 13928 ft 340 kts 93°
2026-05-04 13:44 21.68968 113.74728 13565 ft 335 kts 63°
2026-05-04 13:44 21.70344 113.76664 13185 ft 327 kts 37°
2026-05-04 13:44 21.72170 113.78136 12855 ft 324 kts 33°
2026-05-04 13:44 21.73960 113.79577 12505 ft 323 kts 36°
2026-05-04 13:45 21.75701 113.81115 12178 ft 322 kts 38°
2026-05-04 13:45 21.77388 113.82704 11859 ft 320 kts 39°
2026-05-04 13:45 21.79042 113.84309 11532 ft 319 kts 40°
2026-05-04 13:45 21.80675 113.85908 11202 ft 318 kts 40°
2026-05-04 13:46 21.82294 113.87498 11036 ft 314 kts 40°
2026-05-04 13:46 21.83953 113.89017 11026 ft 314 kts 30°
2026-05-04 13:46 21.85970 113.89781 10902 ft 301 kts 359°
2026-05-04 13:46 21.87969 113.89409 10530 ft 290 kts 333°
2026-05-04 13:47 21.89781 113.88423 10147 ft 289 kts 327°
2026-05-04 13:47 21.91546 113.87375 9781 ft 290 kts 328°
2026-05-04 13:47 21.93311 113.86375 9454 ft 289 kts 329°
2026-05-04 13:47 21.95117 113.85403 9142 ft 288 kts 330°
2026-05-04 13:48 21.96916 113.84470 8839 ft 286 kts 331°
2026-05-04 13:48 21.98727 113.83549 8515 ft 285 kts 332°
2026-05-04 13:48 22.00529 113.82644 8201 ft 284 kts 332°
2026-05-04 13:48 22.02313 113.81753 7891 ft 282 kts 332°
2026-05-04 13:49 22.04095 113.80864 7609 ft 280 kts 332°
2026-05-04 13:49 22.05842 113.79993 7233 ft 274 kts 333°
2026-05-04 13:49 22.07547 113.79144 6837 ft 265 kts 333°
2026-05-04 13:49 22.09178 113.78330 6402 ft 258 kts 333°
2026-05-04 13:50 22.10802 113.77518 5997 ft 254 kts 334°
2026-05-04 13:50 22.12408 113.76718 5628 ft 250 kts 334°
2026-05-04 13:50 22.13960 113.75944 5333 ft 244 kts 335°
2026-05-04 13:50 22.15478 113.75186 5142 ft 235 kts 335°
2026-05-04 13:51 22.16942 113.74456 4955 ft 225 kts 335°
2026-05-04 13:51 22.18327 113.73765 4751 ft 214 kts 336°
2026-05-04 13:51 22.19641 113.73109 4614 ft 199 kts 336°
2026-05-04 13:51 22.20859 113.72501 4400 ft 192 kts 336°
2026-05-04 13:52 22.23352 113.71358 3692 ft 194 kts 354°
2026-05-04 13:52 22.24590 113.71684 3346 ft 185 kts 40°
2026-05-04 13:52 22.25482 113.72655 3095 ft 180 kts 51°
2026-05-04 13:53 22.26323 113.73649 2823 ft 179 kts 50°
2026-05-04 13:53 22.27190 113.74596 2562 ft 177 kts 50°
2026-05-04 13:53 22.27915 113.75671 2344 ft 174 kts 63°
2026-05-04 13:54 22.28886 113.78046 1932 ft 172 kts 71°
2026-05-04 13:54 22.29286 113.79248 1716 ft 166 kts 72°
2026-05-04 13:54 22.29982 113.81435 1306 ft 143 kts 72°
2026-05-04 13:55 22.30293 113.82411 1120 ft 130 kts 72°
2026-05-04 13:55 22.30861 113.84184 796 ft 125 kts 72°
2026-05-04 13:55 22.31145 113.85067 641 ft 125 kts 73°
2026-05-04 13:56 22.31433 113.85960 477 ft 125 kts 73°
2026-05-04 13:56 22.31714 113.86844 313 ft 125 kts 73°
2026-05-04 13:56 22.32291 113.88640 32 ft 124 kts 73°
2026-05-04 13:57 22.32516 113.89345 31 ft 74 kts 71°
2026-05-04 13:57 22.32641 113.89736 32 ft 47 kts 71°
2026-05-04 13:58 22.32716 113.90516 32 ft 25 kts 70°
2026-05-04 13:58 22.32827 113.90859 31 ft 23 kts 70°
2026-05-04 13:58 22.32878 113.91019 31 ft 22 kts 72°
2026-05-04 13:59 22.32935 113.91198 31 ft 27 kts 71°
2026-05-04 13:59 22.32999 113.91392 31 ft 26 kts 70°
2026-05-04 13:59 22.33095 113.91692 32 ft 24 kts 71°
2026-05-04 14:00 22.33138 113.91824 31 ft 23 kts 71°
2026-05-04 14:01 22.33188 113.91985 32 ft 22 kts 71°
2026-05-04 14:01 22.33044 113.92175 32 ft 20 kts 159°
2026-05-04 14:02 22.32906 113.92224 32 ft 20 kts 161°
2026-05-04 14:02 22.32757 113.92281 32 ft 34 kts 159°
2026-05-04 14:02 22.32497 113.92380 32 ft 39 kts 159°
2026-05-04 14:02 22.32288 113.92456 32 ft 22 kts 161°
2026-05-04 14:03 22.32267 113.92587 32 ft 19 kts 76°
2026-05-04 14:03 22.32206 113.92680 32 ft 17 kts 162°
2026-05-04 14:03 22.32086 113.92725 32 ft 18 kts 158°
2026-05-04 14:03 22.31967 113.92771 32 ft 18 kts 161°
2026-05-04 14:04 22.31724 113.92873 32 ft 18 kts 161°
2026-05-04 14:04 22.31600 113.92918 32 ft 19 kts 161°
2026-05-04 14:04 22.31509 113.92866 32 ft 15 kts 249°
2026-05-04 14:05 22.31403 113.92855 32 ft 6 kts 160°
2026-05-04 14:05 22.31399 113.92857 32 ft 0 kts 160°